Flag for Germany Weather past 2 weeks in Osnabrück, Lower Saxony, Germany

Now
41 °F

Light rain. Partly cloudy.


Feels Like: 33 °F
Forecast: 39 / 48 °F
Wind: 15 mph from Southwest

Location: Muenster / Osnabrueck

Current Time: Mar 31, 2015 at 1:35:47 AM

Latest Report: Mar 31, 2015 at 12:50 AM


Visibility: N/A

Pressure: 29.59 "Hg

Humidity: 81%

Dew point: 36 °F

Location of OsnabrückLocation

Historic Weather in Osnabrück — Graph

°F

Osnabrück temperature yesterday

Maximum temperature yesterday: 48 °F (at 3:20 PM)
Minimum temperature yesterday: 41 °F (at 6:50 AM)
Average temperature yesterday: 44 °F

Past Weeks' High & Low Weather Summary

 TemperatureHumidityPressure
High63 °F (Mar 17, 2:20 PM)100% (Mar 17, 4:50 AM)30.39 "Hg (Mar 17, 4:50 AM)
Low28 °F (Mar 23, 4:20 AM)42% (Mar 17, 2:50 PM)29.15 "Hg (Mar 29, 6:50 PM)
Average44 °F82%29.99 "Hg
* Reported Mar 15 11:20 PM — Mar 31 12:20 AM, Osnabrück, Weather by CustomWeather, © 2015

Note: Actual official high and low records may vary slightly from our data, if they occured in-between our weather recording intervals... More about our weather records

Advertising

Osnabrück weather history for previous 24 hours

 ConditionsComfort  
Time TempWeatherWind HumidityBarometerVisibility
12:20 AM
Tue, Mar 31
43 °FPassing clouds.12 mph66%29.62 "HgN/A
11:50 PM
Mon, Mar 30
43 °FClear.8 mph61%29.65 "Hg10 mi
11:20 PM43 °FClear.7 mph61%29.71 "Hg10 mi
10:50 PM43 °FClear.7 mph61%29.74 "Hg10 mi
10:20 PM43 °FClear.8 mph61%29.74 "Hg10 mi
9:50 PM43 °FClear.7 mph61%29.74 "Hg10 mi
9:20 PM43 °FClear.6 mph61%29.77 "Hg10 mi
8:50 PM43 °FSunny.8 mph61%29.77 "Hg10 mi
8:20 PM41 °FSunny.12 mph66%29.77 "Hg10 mi
7:50 PM43 °FSunny.13 mph61%29.77 "Hg10 mi
7:20 PM45 °FPartly sunny.15 mph53%29.77 "HgN/A
6:50 PM45 °FBroken clouds.16 mph57%29.77 "HgN/A
6:20 PM46 °FScattered clouds.17 mph57%29.77 "HgN/A
5:50 PM46 °FScattered clouds.22 mph57%29.74 "HgN/A
5:20 PM48 °FScattered clouds.23 mph50%29.74 "HgN/A
4:50 PM46 °FScattered clouds.22 mph53%29.71 "HgN/A
4:20 PM48 °FScattered clouds.24 mph58%29.68 "HgN/A
3:50 PM48 °FScattered clouds.25 mph50%29.68 "HgN/A
3:20 PM48 °FScattered clouds.29 mph58%29.65 "HgN/A
2:50 PM46 °FScattered clouds.22 mph71%29.65 "HgN/A
2:20 PM43 °FSprinkles. Scattered clouds.23 mph76%29.65 "HgN/A
1:50 PM46 °FScattered clouds.20 mph82%29.62 "HgN/A
1:20 PM43 °FSprinkles. Partly sunny.15 mph81%29.59 "HgN/A
12:50 PM41 °FSprinkles. Broken clouds.26 mph87%29.59 "HgN/A
12:20 PM46 °FScattered showers. Broken clouds.25 mph71%29.56 "HgN/A
11:50 AM46 °FBroken clouds.16 mph71%29.56 "HgN/A
11:20 AM46 °FPartly sunny.23 mph66%29.53 "HgN/A
10:50 AM46 °FPartly sunny.23 mph66%29.50 "HgN/A
10:20 AM45 °FPartly sunny.22 mph66%29.50 "HgN/A
9:50 AM45 °FPartly sunny.23 mph66%29.47 "HgN/A
9:20 AM45 °FScattered clouds.22 mph66%29.47 "HgN/A
8:50 AM43 °FScattered clouds.21 mph76%29.45 "HgN/A
8:20 AM43 °FScattered clouds.20 mph76%29.45 "HgN/A
7:50 AM43 °FSprinkles. Passing clouds.18 mph76%29.42 "HgN/A
7:20 AM43 °FPartly cloudy.18 mph81%29.39 "HgN/A
6:50 AM41 °FSprinkles. Passing clouds.24 mph81%29.39 "Hg5 mi
6:20 AM43 °FPassing clouds.20 mph76%29.39 "HgN/A
5:50 AM45 °FPassing clouds.21 mph71%29.36 "HgN/A
5:20 AM45 °FPassing clouds.20 mph71%29.36 "HgN/A
4:50 AM45 °FPassing clouds.21 mph76%29.36 "HgN/A
4:20 AM45 °FPassing clouds.23 mph81%29.33 "HgN/A
3:50 AM45 °FPassing clouds.18 mph81%29.33 "HgN/A
3:20 AM45 °FSprinkles. Passing clouds.17 mph81%29.33 "HgN/A
2:50 AM45 °FPassing clouds.18 mph81%29.33 "HgN/A
2:20 AM45 °FPassing clouds.20 mph87%29.33 "HgN/A
1:50 AM45 °FPassing clouds.18 mph87%29.33 "HgN/A
1:20 AM45 °FPassing clouds.17 mph87%29.33 "HgN/A
Weather by CustomWeather, © 2015

See weather overviewHow to use our weather pages